CAPE
0 0 0 0 0 0 0 0 0 0 0 0 0 0 0 0 0 0 0 0 1 1 1 0 0 1 10 22 40 51 58 50 44 31 63 42 37 18
0 0 0 0 0 0 0 0 0 0 0 0 0 0 0 0 0 0 0 0 0 2 9 27 40 31 13 19 37 42 49 48 41 48 39 25 29 16
0 0 0 0 0 0 0 0 0 0 0 0 0 0 0 0 0 0 0 0 0 7 31 35 48 65 76 63 48 33 43 38 40 35 21 14 13 13
0 0 0 0 0 0 0 0 0 0 0 0 0 0 0 0 0 0 0 0 0 1 51 50 54 46 43 46 64 65 47 47 41 14 0 0 3 5
0 0 0 0 0 0 0 0 0 0 0 0 0 0 0 0 0 0 0 0 0 2 10 24 34 54 66 69 45 78 68 61 57 38 24 26 14 0
0 0 0 0 0 0 0 0 0 0 0 0 0 0 0 0 0 0 0 0 0 0 0 0 10 17 4 33 28 1 23 50 57 44 61 21 2 0
0 0 0 0 0 0 0 0 0 0 0 0 0 0 0 0 0 8 0 0 0 0 0 0 0 0 0 1 0 1 21 42 38 50 39 41 8 0
0 0 0 0 0 0 0 0 0 0 0 0 0 0 0 3 3 0 0 0 0 0 0 0 0 0 0 0 4 0 11 0 3 1 6 15 1 0
0 0 0 0 0 0 0 0 0 0 0 0 0 0 0 0 0 0 0 0 0 0 0 0 0 0 0 0 0 32 54 35 19 5 14 0 0 0
0 0 0 0 0 0 0 0 0 0 0 0 0 0 0 0 0 0 0 0 0 0 0 1 0 0 0 0 0 0 18 37 34 25 10 0 0 3
0 0 0 0 0 0 0 0 0 0 0 0 0 0 0 0 3 3 5 13 1 0 0 0 0 0 0 0 0 1 0 0 19 19 5 0 3 1
0 0 0 0 0 0 0 0 0 0 0 0 0 0 0 0 2 0 0 1 1 0 0 3 0 0 0 0 0 0 0 0 0 0 0 1 2 0
0 0 0 0 0 0 0 0 0 0 0 0 0 0 0 0 0 0 0 0 1 1 0 3 0 0 0 0 0 0 1 0 0 0 1 2 8 4
0 0 0 0 0 0 0 0 0 0 0 0 0 0 0 0 0 0 0 0 0 0 3 4 0 0 0 0 0 0 0 0 0 0 0 2 7 5
0 0 0 0 0 0 0 0 0 0 0 0 0 0 0 0 0 0 0 0 0 0 0 0 0 0 0 0 0 0 0 0 0 0 0 0 0 0
0 0 0 0 0 0 0 0 0 0 0 0 0 0 0 0 0 0 0 0 0 0 0 0 0 1 0 0 0 0 0 0 0 0 0 0 0 0
0 0 0 0 0 0 0 0 0 0 0 0 0 0 0 0 0 0 0 0 0 0 0 0 0 0 1 0 1 0 0 0 0 0 0 2 0 0
0 0 0 0 0 0 0 0 0 0 0 0 0 0 0 0 0 0 0 0 0 0 0 0 0 0 0 0 2 0 0 0 0 0 0 0 0 0
0 0 0 0 0 0 0 0 0 0 0 0 0 0 0 0 0 0 0 0 0 0 0 0 0 0 0 0 0 0 0 0 0 0 0 0 0 1
0 0 0 0 0 0 0 0 0 0 0 0 0 0 0 0 0 0 0 0 0 0 0 0 0 0 1 0 0 0 0 0 0 0 0 0 0 0
0 0 0 0 0 0 0 0 0 0 0 0 0 0 0 0 0 0 0 0 0 0 0 0 0 0 0 0 0 0 0 0 0 0 0 0 0 0
0 0 0 0 0 0 0 0 0 0 0 0 0 0 0 0 0 0 0 0 0 0 0 0 0 0 0 1 0 0 0 0 0 0 0 0 0 0
0 0 0 0 0 0 0 0 0 0 0 0 0 0 0 0 0 0 0 0 0 0 0 0 0 0 0 0 0 0 0 0 0 0 0 0 0 0
CIN
-0 -0 -0 -0 -0 -0 -0 -0 -0 -0 -0 -0 -0 -0 -0 -0 -0 -0 -0 -0 -1 -2 -0 -0 -0 -0 -0 -0 -0 -0 -0 -0 -0 -0 -0 -0 -0 -0
-0 -0 -0 -0 -0 -0 -0 -0 -0 -0 -0 -0 -0 -0 -0 -0 -0 -0 -0 -0 -0 -5 -2 -1 -0 -0 -0 -0 -0 -0 -0 -0 -0 -0 -0 -0 -0 -0
-0 -0 -0 -0 -0 -0 -0 -0 -0 -0 -0 -0 -0 -0 -0 -0 -0 -0 -0 -0 -0 -1 -0 -0 -0 -0 -1 -1 -1 -1 -1 -0 -0 -0 -0 -0 -0 -0
-0 -0 -1 -0 -0 -0 -0 -0 -0 -0 -0 -0 -0 -0 -0 -0 -0 -0 -0 -0 -0 -1 -0 -0 -0 -1 -4 -5 -3 -4 -4 -2 -4 -4 -0 -0 -0 -0
-0 -0 -0 -0 -0 -0 -0 -0 -0 -0 -0 -0 -0 -0 -0 -0 -0 -0 -0 -0 -0 -3 -0 -1 -0 -1 -3 -2 -3 -2 -2 -0 -2 -5 -2 -0 -0 -0
-0 -0 -0 -0 -0 -0 -0 -0 -0 -0 -0 -0 -0 -0 -0 -0 -0 -0 -0 -0 -0 -0 -0 -0 -5 -2 -3 -8 -9 -6 -9 -1 -2 -5 -1 -6 -4 -0
-0 -0 -0 -0 -0 -0 -0 -0 -0 -0 -0 -0 -0 -0 -0 -0 -0 -2 -0 -0 -0 -0 -0 -0 -0 -0 -0 -5 -0 -0 -13 -19 -7 -0 -0 -2 -7 -0
-0 -0 -0 -0 -0 -0 -0 -0 -0 -0 -0 -0 -0 -0 -0 -2 -1 -0 -0 -0 -0 -0 -0 -0 -0 -0 -0 -0 -4 -0 -0 -0 -0 -16 -14 -8 -20 -0
-0 -0 -0 -0 -0 -0 -0 -0 -0 -0 -0 -0 -0 -0 -0 -0 -0 -0 -0 -0 -0 -0 -0 -0 -0 -0 -0 -0 -0 -4 -6 -10 -24 -30 -9 -0 -0 -0
-0 -0 -0 -0 -0 -0 -0 -0 -0 -0 -0 -0 -0 -0 -0 -0 -0 -0 -0 -0 -0 -0 -0 -0 -0 -0 -0 -0 -0 -0 -13 -6 -6 -13 -17 -0 -0 -24
-0 -0 -0 -0 -0 -0 -0 -0 -0 -0 -0 -0 -0 -0 -0 -0 -2 -4 -1 -0 -1 -0 -0 -0 -0 -0 -0 -0 -0 -29 -2 -0 -10 -13 -24 -0 -0 -10
-0 -0 -0 -0 -0 -0 -0 -0 -0 -0 -0 -0 -0 -0 -0 -0 -2 -0 -0 -0 -0 -0 -0 -1 -0 -0 -0 -0 -0 -0 -0 -0 -0 -7 -0 -0 -0 -1
-0 -0 -0 -0 -0 -0 -0 -0 -0 -0 -0 -0 -0 -0 -0 -0 -0 -0 -0 -0 -0 -0 -0 -0 -0 -0 -0 -0 -0 -0 -38 -0 -0 -0 -0 -0 -0 -0
-0 -0 -0 -0 -0 -0 -0 -0 -0 -0 -0 -0 -0 -0 -0 -0 -0 -0 -0 -0 -0 -0 -0 -0 -0 -0 -0 -0 -0 -0 -0 -0 -0 -0 -0 -0 -0 -0
-0 -0 -0 -0 -0 -0 -0 -0 -0 -0 -0 -0 -0 -0 -0 -0 -0 -0 -0 -0 -0 -0 -0 -0 -0 -0 -0 -0 -0 -0 -0 -0 -0 -0 -0 -0 -0 -0
-0 -0 -0 -0 -0 -0 -0 -0 -0 -0 -0 -0 -0 -0 -0 -0 -0 -0 -0 -0 -0 -0 -0 -0 -0 -0 -0 -0 -0 -0 -0 -0 -0 -0 -0 -0 -0 -0
-0 -0 -0 -0 -0 -0 -0 -0 -0 -0 -0 -0 -0 -0 -0 -0 -0 -0 -0 -0 -0 -0 -0 -0 -0 -0 -0 -0 -0 -0 -0 -0 -0 -0 -0 -3 -0 -0
-0 -0 -0 -0 -0 -0 -0 -0 -0 -0 -0 -0 -0 -0 -0 -0 -0 -0 -0 -0 -0 -0 -0 -0 -0 -0 -0 -0 -0 -0 -0 -0 -0 -0 -0 -9 -0 -0
-0 -0 -0 -0 -0 -0 -0 -0 -0 -0 -0 -0 -0 -0 -0 -0 -0 -0 -0 -0 -0 -0 -0 -0 -0 -0 -0 -0 -0 -0 -0 -0 -0 -0 -0 -0 -0 -0
-0 -0 -0 -0 -0 -0 -0 -0 -0 -0 -0 -0 -0 -0 -0 -0 -0 -0 -0 -0 -0 -0 -0 -0 -0 -0 -0 -0 -0 -0 -0 -0 -0 -0 -0 -0 -0 -0
-0 -0 -0 -0 -0 -0 -0 -0 -0 -0 -0 -0 -0 -0 -0 -0 -0 -0 -0 -0 -0 -0 -0 -0 -0 -0 -0 -0 -0 -0 -0 -0 -0 -0 -0 -0 -0 -0
-0 -0 -0 -0 -0 -0 -0 -0 -0 -0 -0 -0 -0 -0 -0 -0 -0 -0 -0 -0 -0 -0 -0 -0 -0 -0 -0 -0 -0 -0 -0 -0 -0 -0 -0 -0 -0 -0
-0 -0 -0 -0 -0 -0 -0 -0 -0 -0 -0 -0 -0 -0 -0 -0 -0 -0 -0 -0 -0 -0 -0 -0 -0 -0 -0 -0 -0 -0 -0 -0 -0 -0 -0 -0 -0 -0
Wind_Speed
4 3 4 3 1 2 3 3 3 3 6 5 3 4 4 3 7 6 6 12 18 17 19 20 22 23 22 22 23 24 23 25 28 28 26 22 21 22
2 5 4 3 3 1 4 2 0 2 4 1 2 4 4 6 8 8 8 19 17 18 19 20 20 21 22 23 21 23 24 23 25 26 23 23 22 22
1 1 2 0 1 2 1 3 3 2 3 4 3 3 5 6 8 7 8 8 7 16 19 20 21 20 21 19 19 21 25 23 22 20 22 24 23 21
2 3 3 3 1 3 3 3 1 1 1 7 5 6 5 6 9 9 7 9 9 15 18 20 20 16 15 17 17 17 21 18 18 19 21 23 23 21
2 3 5 3 1 1 1 2 1 3 1 2 8 6 5 6 8 7 7 5 8 17 18 18 19 16 16 14 15 19 20 20 16 16 18 18 19 21
3 5 4 3 4 3 2 2 0 2 2 3 6 7 6 8 6 6 6 5 8 9 13 15 16 15 18 17 16 21 22 20 21 16 14 14 16 18
5 5 1 3 6 5 1 2 2 2 3 5 6 8 8 8 8 5 6 8 10 7 8 7 7 8 8 13 11 20 20 7 13 17 15 16 16 17
3 4 3 4 5 4 6 5 3 3 3 3 6 8 10 6 4 5 8 8 8 3 3 11 6 8 8 7 13 13 14 2 9 9 14 16 16 19
4 3 3 4 5 3 2 5 7 11 7 6 9 5 7 6 5 9 9 7 9 11 7 11 7 8 7 9 16 15 15 16 15 15 16 14 15 18
4 3 3 4 4 3 2 4 4 5 6 6 3 7 7 7 7 8 10 11 9 10 7 8 6 7 5 7 16 12 13 15 16 17 13 12 13 13
3 4 4 4 5 2 1 4 5 6 8 13 17 17 19 19 15 7 5 7 8 9 3 4 4 4 3 3 4 7 12 17 14 17 12 11 13 11
3 1 3 6 3 2 1 3 5 7 7 8 7 11 11 10 13 5 4 7 8 9 3 3 4 2 4 3 3 4 2 13 13 7 7 11 14 4
3 2 2 7 5 6 7 4 6 6 7 6 7 5 6 6 6 6 7 6 8 9 13 8 2 2 3 4 3 4 2 3 3 2 9 13 15 10
4 3 3 10 7 9 7 11 13 8 2 4 4 4 5 6 7 6 8 7 7 11 13 13 3 2 2 3 4 3 4 3 3 2 4 6 8 10
3 7 11 9 11 9 14 15 8 3 3 2 3 3 3 6 8 7 7 9 9 9 9 11 2 4 3 3 3 3 4 3 3 2 2 1 1 1
7 6 4 5 7 7 7 8 5 4 4 4 3 3 3 3 3 5 7 7 6 7 9 7 9 9 4 3 2 3 2 3 4 2 3 1 1 1
3 3 3 2 3 4 3 4 3 3 2 2 1 2 3 2 3 4 6 7 4 7 8 8 9 8 4 4 3 2 3 3 2 2 1 2 1 1
3 3 3 3 4 5 4 4 2 3 3 2 1 1 2 2 3 5 5 5 7 7 7 7 6 7 5 3 4 4 1 2 2 3 3 2 2 3
4 4 4 5 5 6 6 4 4 3 3 2 2 2 2 2 3 4 4 4 6 7 7 6 6 6 6 6 1 10 2 2 3 3 3 3 2 3
5 6 7 6 7 6 5 4 3 3 3 3 2 2 2 2 2 3 4 2 4 6 6 6 6 6 6 3 3 2 10 3 1 1 2 3 3 8
8 8 7 7 7 7 5 5 5 4 4 3 3 2 3 2 2 3 3 5 4 5 6 7 8 13 7 5 1 1 3 11 9 2 2 3 1 1
7 8 8 8 8 8 7 6 5 4 3 4 3 3 3 3 2 3 3 2 2 2 4 6 8 7 4 3 2 2 1 3 7 14 14 6 2 2
9 8 8 7 8 7 5 6 7 5 5 4 4 4 3 2 3 2 3 3 2 2 2 5 6 5 5 4 5 4 2 2 1 2 4 10 9 10
Wind_Direction
15 328 275 267 26 337 222 205 182 287 292 293 288 317 329 329 324 332 331 313 304 307 299 296 296 295 293 294 291 287 281 273 274 278 281 286 292 298
26 11 7 41 66 22 279 259 254 274 291 348 306 305 349 332 322 322 294 301 297 292 294 295 300 296 297 294 292 289 284 273 269 272 276 284 287 293
267 215 281 207 339 257 3 51 47 39 303 303 306 320 322 319 314 300 293 291 287 300 296 302 299 297 288 285 288 284 283 262 262 269 276 280 285 290
36 7 334 346 14 66 89 63 66 308 356 320 311 319 307 294 295 300 296 302 302 303 299 304 299 307 321 301 281 284 288 263 255 260 271 275 280 286
267 281 279 278 33 161 115 64 330 355 332 298 303 299 290 294 300 297 296 309 311 312 312 310 307 308 317 309 309 299 278 261 259 264 264 266 271 280
344 325 307 133 188 214 227 238 321 330 294 286 296 297 297 299 288 301 311 309 305 307 304 295 301 306 303 303 301 305 295 271 262 261 251 258 269 273
337 327 46 238 237 193 128 342 338 288 277 279 290 294 295 301 303 302 298 305 300 290 286 291 308 291 290 290 290 321 301 311 298 260 262 261 273 275
303 299 313 360 59 73 74 45 343 295 261 236 288 284 289 294 296 296 301 307 311 255 346 300 290 290 283 273 263 307 298 197 271 259 258 265 272 278
289 266 287 111 126 141 39 351 329 320 306 297 290 303 312 297 283 300 293 286 279 284 292 289 292 275 270 286 288 266 253 229 234 242 246 261 277 276
278 262 258 182 185 147 47 334 302 297 295 293 308 291 273 281 267 277 286 282 279 283 279 279 292 280 275 282 282 297 316 288 245 236 240 265 286 256
279 307 286 146 177 71 29 308 298 294 307 311 316 314 313 310 307 308 309 319 306 305 266 260 266 278 259 282 267 302 347 317 271 230 228 264 286 244
278 290 140 157 164 348 262 264 287 289 290 303 303 308 303 298 316 315 304 313 309 305 291 262 287 263 316 271 278 270 16 323 300 214 241 268 267 221
195 248 196 183 205 270 283 223 240 267 280 298 298 299 306 308 313 312 305 292 302 296 291 291 228 245 223 293 300 301 263 323 290 287 270 269 252 198
205 219 235 227 275 301 288 266 271 271 262 286 277 301 296 311 306 303 300 290 283 283 297 299 270 234 246 283 279 310 315 293 276 237 257 256 214 222
190 232 244 254 272 279 275 274 271 239 242 261 275 265 267 299 307 311 310 304 298 297 318 330 23 290 250 245 271 289 322 307 300 271 270 191 140 121
224 240 237 229 235 249 267 269 249 223 214 228 234 256 278 301 299 314 318 315 311 323 326 318 313 317 263 206 194 294 290 302 335 301 321 76 74 61
176 199 231 244 254 267 245 242 247 231 206 197 253 290 286 288 303 319 320 330 326 326 330 331 330 318 279 254 278 248 310 297 332 315 355 56 14 84
175 187 224 231 242 256 241 251 253 236 189 199 246 258 278 298 302 324 322 333 332 328 327 325 337 349 345 20 7 294 312 314 314 335 38 67 42 30
183 201 207 223 245 254 235 220 232 211 176 188 190 256 276 290 313 319 312 321 333 326 322 340 348 354 352 340 334 45 0 300 311 358 8 50 38 36
199 213 223 227 238 245 237 222 205 183 179 192 197 246 276 244 308 313 313 298 318 330 336 338 340 338 325 289 306 301 16 320 184 106 75 61 28 49
217 221 220 225 234 239 230 221 188 191 188 186 215 225 261 226 297 293 301 311 308 333 336 331 317 310 291 279 312 18 347 22 41 72 69 103 131 83
217 221 222 220 227 231 225 213 199 189 199 206 214 211 225 180 239 283 294 287 295 284 319 320 323 328 326 327 315 130 55 352 31 46 45 65 153 168
223 223 223 221 221 225 207 193 198 199 201 203 189 196 174 193 243 261 275 295 308 332 319 333 331 336 333 15 11 340 119 185 144 46 20 25 51 64